Regional Weather Roundup
Issued by NWS

Home | Current Version | Previous Version | Graphics & Text | Print | Product List | Glossary On
Versions: 1 2 3 4 5 6 7 8 9 10 11 12 13 14 15 16 17 18 19 20 21 22 23 24 25 26 27 28 29 30 31 32 33 34 35 36 37 38 39 40 41 42 43 44 45 46 47 48 49 50
000
ASUS44 KMEG 290400
RWRTN
TENNESSEE HOURLY STATE WEATHER ROUNDUP
NATIONAL WEATHER SERVICE MEMPHIS TN
1000 PM CST FRI NOV 28 2014

TNZ002-004-019-021-049-052-054-088>092-290500-
WEST TENNESSEE

CITY           SKY/WX    TMP DP  RH WIND       PRES   REMARKS
MEMPHIS INTL   CLEAR     49  26  41 S12       30.10F
NWS MEMPHIS      N/A     45 N/A N/A MISG        N/A
JACKSON        CLEAR     45  27  49 S12G23    30.10F
DYERSBURG      CLEAR     45  21  39 S7        30.09S
UNION CITY     CLEAR     39  28  65 S9        30.05S WCI  33
PARIS          CLEAR     39  27  60 S14       30.08S WCI  31
LEXINGTON      CLEAR     43  25  49 S10       30.11F
SAVANNAH       CLEAR     43  25  49 S8        30.15F
$$

TNZ008-025-027-028-033-062-065-066-290500-
NORTH MIDDLE TENNESSEE

CITY           SKY/WX    TMP DP  RH WIND       PRES   REMARKS
NASHVILLE      PTCLDY    40  21  46 SE6       30.16S
CLARKSVILLE    CLEAR     44  25  47 S12       30.09F
CROSSVILLE     PTCLDY    38  17  42 VRB6      30.18F WCI  33
$$

TNZ061-075-076-078-094-096-097-290500-
SOUTH MIDDLE TENNESSEE

CITY           SKY/WX    TMP DP  RH WIND       PRES   REMARKS
WINCHESTER     CLEAR     37  21  52 SE7       30.20F WCI  32
SHELBYVILLE    CLEAR     41  21  45 S9        30.19S
$$

TNZ017-018-042-046-047-290500-
NORTHEAST TENNESSEE

CITY           SKY/WX    TMP DP  RH WIND       PRES   REMARKS
TRI CITIES     MOCLDY    26  23  88 CALM      30.22F
ELIZABETHTON   CLEAR     27  21  80 NE3       30.22S
$$

TNZ012-013-036-069-073-074-290500-
CENTRAL EAST TENNESSEE

CITY           SKY/WX    TMP DP  RH WIND       PRES   REMARKS
KNOXVILLE      PTCLDY    32  23  69 CALM      30.22F
OAK RIDGE      PTCLDY    32  22  66 SW3       30.24F
GATLINBURG     CLEAR     27  21  80 CALM      30.22F
$$

TNZ083-085-099-290500-
SOUTHEAST TENNESSEE

CITY           SKY/WX    TMP DP  RH WIND       PRES   REMARKS
CHATTANOOGA    CLEAR     33  24  69 CALM      30.26F
$$

SKY/WX REPORTED AS FAIR MEANS FEW OR NO CLOUDS BELOW
12 THOUSAND FEET.



USA.gov is the U.S. government's official web portal to all federal, state and local government web resources and services.